OneWeb SL0347

operational
NORAD ID: 49280 Int'l Des: 2021-090 Owner: ONEWEBN Country: UK Constellation: oneweb
LEOCIRCULARPOLARONEWEB_TYPE

OneWeb SL0347について

説明を読み込み中...

リアルタイム位置

3D地球を読み込み中...

次回通過

高度履歴

Altitude vs Time

uPlot chart will show altitude changes over time

軌道要素

1 49280U 21090B 26035.24301417 .00000102 00000-0 22012-3 0 9996
2 49280 87.9216 300.9720 0001475 68.5010 291.6280 13.20770985213495
Epoch: Feb 4, 2026 • Age: 18 hours

現在のステータス

高度 1209.2 km
速度 7.25 km/s
衛星直下点 -71.59°S, 164.67°E
打ち上げ日 Oct 14, 2021
運用期間 4.3 years
タイプ internet

技術仕様

分類 Payload
質量 148.00 kg
乾燥質量 140.00 kg
総質量 148.00 kg
長さ 1.30 m
直径 1.00 m
スパン 5.00 m
形状 Trapezoid+2 pan
製造者 ONEWUS
バスタイプ ARROW
フェーズステータス In Orbit
所有者/国 ONEWEBN/UK

大規模コンステレーション

Loading constellations...